Hourly Data Report for October 06, 2016

All times are specified in Local Standard Time (LST). Add 1 hour to adjust for Daylight Saving Time where and when it is observed.

KUGLUKTUK A
NUNAVUT

67°49'00.000" N
115°08'38.000" W
22.60 m
2300903
71938
YCO

Download Data

Hourly Data (October 2016)
Hourly Data Report for October 6, 2016
Temp Definition
°C
Dew Point Temp Definition
°C
Rel Hum Definition
%
Wind Dir Definition
10's deg

Wind Spd Definition
km/h
Visibility Definition
km
Stn Press Definition
kPa
Hmdx Definition


Wind Chill Definition


Weather Definition


TIME
00:00 Legend Double Dagger 0.3 -2.9 79 22 17 24.1 102.26     LegendNANA
01:00 Legend Double Dagger 0.6 -2.5 80 24 16 24.1 102.25     LegendNANA
02:00 Legend Double Dagger 0.6 -2.5 80 23 23 24.1 102.22     Snow
03:00 Legend Double Dagger 0.6 -2.5 80 24 25 24.1 102.20     LegendNANA
04:00 Legend Double Dagger 0.4 -2.2 83 23 20 24.1 102.19     LegendNANA
05:00 Legend Double Dagger 0.7 -2.0 82 24 23 19.3 102.17     Snow
06:00 Legend Double Dagger 0.6 -1.8 84 24 19 24.1 102.15     LegendNANA
07:00 Legend Double Dagger 0.7 -1.5 85 24 22 24.1 102.13     LegendNANA
08:00 Legend Double Dagger 0.9 -1.7 83 24 22 24.1 102.12     Cloudy
09:00 Legend Double Dagger 0.8 -1.6 84 24 21 24.1 102.12     LegendNANA
10:00 Legend Double Dagger 1.2 -2.0 79 25 25 24.1 102.11     LegendNANA
11:00 Legend Double Dagger 1.4 -2.2 77 25 25 24.1 102.10     Cloudy
12:00 Legend Double Dagger 1.5 -1.2 82 26 21 24.1 102.12     LegendNANA
13:00 Legend Double Dagger 1.3 -0.8 86 26 20 24.1 102.14     Rain,Snow
14:00 Legend Double Dagger 1.5 -1.6 80 29 17 24.1 102.17     Mostly Cloudy
15:00 Legend Double Dagger 1.1 -3.2 73 30 23 24.1 102.22     Snow Pellets
16:00 Legend Double Dagger 0.7 -3.2 75 28 12 24.1 102.24     LegendNANA
17:00 Legend Double Dagger 0.2 -3.2 78 26 15 24.1 102.28     Cloudy
18:00 Legend Double Dagger 0.2 -3.4 77 28 18 24.1 102.30     LegendNANA
19:00 Legend Double Dagger 0.0 -3.4 78 28 19 24.1 102.31   -5 LegendNANA
20:00 Legend Double Dagger -0.2 -3.4 79 26 18 24.1 102.32   -5 Cloudy
21:00 Legend Double Dagger -0.6 -3.0 84 26 19 24.1 102.33   -6 Snow
22:00 Legend Double Dagger -0.8 -2.7 87 27 20 24.1 102.32   -6 Snow
23:00 Legend Double Dagger -0.7 -3.2 83 25 25 19.3 102.31   -7 Snow

Notes on Data Quality.

Legend

  • E = Estimated
  • M = Missing
  • NA = Not Available
  • ‡ = Partner data that is not subject to review by the National Climate Archives
Date modified: